Fort Wayne, IN

11:29 AM EDT on August 25, 2019 (GMT -0400)
Fort Wayne International

Weather History for KFWA - June, 2019

Change the Weather History Date:

Tuesday, June 11, 2019

  Actual Average Record
Temperature  
Mean Temperature 66 °F 69 °F  
Max Temperature 81 °F 80 °F 96 °F (1933)
Min Temperature 50 °F 58 °F 39 °F (1972)
Degree Days  
Heating Degree Days 0 1  
Month to date heating degree days 10 20  
Since 1 June heating degree days 10 20  
Since 1 July heating degree days 5857 6092  
Cooling Degree Days 1 5  
Month to date cooling degree days 43 46  
Year to date cooling degree days 111 103  
Since 1 June cooling degree days 43 46  
Growing Degree Days 16 (Base 50)    
Moisture  
Dew Point 47 °F    
Average Humidity 56    
Maximum Humidity 83    
Minimum Humidity 29    
Precipitation  
Precipitation 0.00 in 0.15 in 1.84 in (1941)
Month to date precipitation 0.50 1.68  
Year to date precipitation 18.37 16.48  
Sea Level Pressure  
Sea Level Pressure 30.17 in    
Wind  
Wind Speed 6 mph (WSW)    
Max Wind Speed 13 mph    
Max Gust Speed 18 mph    
Visibility 10 miles    
Events      
T = Trace of Precipitation, MM = Missing Value Source: NWS Daily Summary

Daily Weather History Graph

Daily Weather History Graph

Search for Another Location

Airport or City:

Astronomy

Jun. 11, 2019 Rise Set
Actual Time 6:08 AM EDT 9:12 PM EDT
Civil Twilight 5:34 AM EDT 9:46 PM EDT
Nautical Twilight 4:52 AM EDT 10:28 PM EDT
Astronomical Twilight 4:02 AM EDT 11:19 PM EDT
Moon 3:08 PM EDT (6/11) 2:55 AM EDT (6/11)
Length of Visible Light 16h 11m
Length of Day
15h 04m
Waxing Gibbous, 66% of the Moon is Illuminated
Jun 11
Waxing Gibbous
Jun 17
Full
Jun 25
Last Quarter
Jul 2
New
Jul 9
First Quarter

Hourly Weather History & Observations

Time (EDT) Temp. Dew Point Humidity Pressure Visibility Wind Dir Wind Speed Gust Speed Precip Events Conditions
12:54 AM 55.0 °F 46.9 °F 74% 30.18 in 10.0 mi Calm Calm - N/A   Clear
1:54 AM 52.0 °F 46.9 °F 83% 30.18 in 10.0 mi SW 4.6 mph - N/A   Clear
2:54 AM 51.1 °F 46.9 °F 86% 30.18 in 10.0 mi WSW 5.8 mph - N/A   Clear
3:54 AM 51.1 °F 46.0 °F 83% 30.18 in 10.0 mi SW 4.6 mph - N/A   Clear
4:54 AM 51.1 °F 46.9 °F 86% 30.19 in 10.0 mi SW 5.8 mph - N/A   Clear
5:54 AM 52.0 °F 46.0 °F 80% 30.20 in 10.0 mi West 5.8 mph - N/A   Clear
6:54 AM 53.1 °F 46.9 °F 80% 30.22 in 10.0 mi Calm Calm - N/A   Clear
7:54 AM 60.1 °F 50.0 °F 69% 30.23 in 10.0 mi West 5.8 mph - N/A   Clear
8:54 AM 66.0 °F 50.0 °F 56% 30.23 in 10.0 mi West 9.2 mph - N/A   Clear
9:54 AM 68.0 °F 48.0 °F 49% 30.23 in 10.0 mi West 12.7 mph - N/A   Partly Cloudy
10:07 AM 71.1 °F 48.0 °F 44% 30.24 in 10.0 mi West 10.4 mph - N/A   Partly Cloudy
10:54 AM 73.9 °F 48.0 °F 40% 30.22 in 10.0 mi West 11.5 mph - N/A   Scattered Clouds
11:54 AM 75.9 °F 44.1 °F 32% 30.22 in 10.0 mi WSW 9.2 mph - N/A   Mostly Cloudy
12:54 PM 75.9 °F 43.0 °F 31% 30.21 in 10.0 mi West 9.2 mph - N/A   Mostly Cloudy
1:54 PM 79.0 °F 45.0 °F 30% 30.19 in 10.0 mi West 11.5 mph 16.1 mph N/A   Mostly Cloudy
2:54 PM 79.0 °F 46.9 °F 32% 30.17 in 9.0 mi North 6.9 mph - N/A   Mostly Cloudy
3:54 PM 79.0 °F 45.0 °F 30% 30.15 in 10.0 mi East 4.6 mph - N/A   Mostly Cloudy
4:54 PM 80.1 °F 46.0 °F 30% 30.14 in 10.0 mi NE 4.6 mph - N/A   Scattered Clouds
5:54 PM 77.0 °F 42.1 °F 29% 30.12 in 10.0 mi West 4.6 mph - N/A   Scattered Clouds
6:54 PM 73.9 °F 48.9 °F 41% 30.12 in 10.0 mi South 4.6 mph - N/A   Scattered Clouds
7:54 PM 73.9 °F 48.0 °F 40% 30.10 in 10.0 mi SSE 4.6 mph - N/A   Partly Cloudy
8:54 PM 73.0 °F 46.0 °F 38% 30.09 in 10.0 mi SE 3.5 mph - N/A   Partly Cloudy
9:54 PM 68.0 °F 48.9 °F 50% 30.10 in 10.0 mi SE 4.6 mph - N/A   Partly Cloudy
10:54 PM 63.0 °F 50.0 °F 63% 30.11 in 10.0 mi Calm Calm - N/A   Partly Cloudy
11:54 PM 61.0 °F 48.9 °F 64% 30.11 in 10.0 mi SE 5.8 mph - N/A   Partly Cloudy